Preview of NWS' New Version of Forecast
This preview is not operational and should not be used for support decisions.
Latest weather observations around

INDEPENDENCE (KIDP)

Using English Units (Switch to International System of Units)
Date/ Time (CDT) Wind (mph) Vis. (mi) Weather Sky Cond. Temp (°F) Rel. Humidity Wind Chill (°F) Heat Index (°F) Pressure Precip. (in)
Air Dwpt 6 hour Altimeter (inHg) Sea level (inHg) 1 hr 3 hr 6 hr
Max Min
Sep 21 16:55 S 15 10 Cloudy SCT032 BKN046 OVC050 81 72     74%   86 29.95        
Sep 21 16:35 S 15 10 Cloudy BKN032 OVC044 82 73     73%   88 29.95        
Sep 21 16:15 S 15 10 Cloudy SCT033 OVC043 82 73     74%   87 29.95        
Sep 21 15:55 S 13 10 Cloudy SCT027 BKN034 OVC041 81 73     76%   87 29.96        
Sep 21 15:35 S 14 10 Mostly Cloudy SCT027 BKN035 BKN041 82 73     74%   87 29.97        
Sep 21 15:15 S 14 10 Cloudy SCT027 BKN032 OVC039 81 73     76%   85 29.98        
Sep 21 14:55 S 20 10 Cloudy and Windy SCT022 BKN027 OVC075 82 73     76%   87 29.98        
Sep 21 14:35 S 14 10 Cloudy BKN022 OVC034 81 74     78%   86 29.99        
Sep 21 14:15 S 15 7 Cloudy BKN020 OVC028 79 73     82%   83 29.99        
Sep 21 13:55 S 17 4 Haze OVC020 79 73     82%   83 29.99        
Sep 21 13:35 S 18 5 Fog/Mist BKN018 OVC023 78 74     86%   80 29.99        
Sep 21 13:15 SSE 16 7 Cloudy BKN016 OVC034 76 73     90%   78 30        
Sep 21 12:55 S 12 5   BKN016 BKN024 OVC034 75 73     92%   77 30.02        
Sep 21 12:35 S 13 4 Fog/Mist SCT009 BKN015 OVC020 74 72     94%   76 30.02        
Sep 21 12:15 SSE 20 7 Fog/Mist SCT007 OVC018 74 72     95%   75 30.02        
Sep 21 11:55 S 12 4   BKN007 OVC012 73 72     96%   75 30.02        
Sep 21 11:35 S 10 7 Fog/Mist SCT009 OVC014 73 72     96%   74 30.03        
Sep 21 11:15 S 14 7 Light Rain SCT008 BKN016 OVC027 73 72     96%   74 30.03        
Sep 21 10:55 S 17 5 Thunderstorms and Light Rain and Fog/Mist SCT006 BKN010 OVC026 72 71     96%   74 30.03   0    
Sep 21 10:35 S 10 2 Thunderstorms and Heavy Rain and Fog/Mist OVC006 73 72     96%   74 30.03   0    
Sep 21 10:15 S 15 2 Rain and Fog/Mist OVC008 73 72     95%   75 30.04   0    
Sep 21 09:55 S 15 3 Thunderstorms and Rain and Fog/Mist BKN015 BKN021 OVC028 75 72     90%   76 30.02        
Sep 21 09:35 S 20 10 Cloudy and Windy BKN015 BKN019 OVC024 76 72     86%   77 30.03        
Sep 21 09:15 S 18 7 Fog/Mist BKN014 OVC022 76 72     86%   78 30.03        
Sep 21 08:55 S 17 4   SCT014 SCT019 OVC027 76 72     87%   78 30.02        
Sep 21 08:35 S 14 4 Fog/Mist SCT012 BKN025 OVC055 75 72     91%   76 30.02        
Sep 21 08:15 S 15 5 Fog/Mist SCT012 SCT022 BKN110 75 72     91%   76 30.01        
Sep 21 07:55 S 16 5 Fog/Mist SCT013 SCT041 BKN110 75 72     90%   76 30.01        
Sep 21 07:35 S 17 3 Fog/Mist BKN013 BKN033 OVC042 75 72     91%   76 30.01        
Sep 21 07:15 S 16 3 Fog/Mist OVC013 75 72     91%   76 30.01        
Sep 21 06:55 S 13 3 Fog/Mist OVC013 75 72     90%   77 30        
Sep 21 06:35 S 12 3 Fog/Mist OVC013 75 72     89%   77 30        
Sep 21 06:15 S 15 3.5 Fog/Mist SCT013 BKN020 OVC030 75 72     90%   77 30        
Sep 21 05:55 S 13 3.5 Fog/Mist SCT027 75 72     90%   76 29.99        
Sep 21 05:35 S 17 10 Partly Cloudy SCT014 75 72     90%   76 29.98        
Sep 21 05:15 S 15 7 Partly Cloudy SCT014 75 71     90%   76 29.98        
Sep 21 04:55 S 15 7 Mostly Cloudy BKN016 BKN065 75 71     90%   76 29.97        
Sep 21 04:35 S 13 7 Fog/Mist OVC016 74 72     91%   76 29.97        
Sep 21 04:15 S 11 5 Fog/Mist OVC016 74 72     93%   75 29.97        
Sep 21 03:55 S 16 4 Fog/Mist OVC016 74 72     91%   76 29.97        
Sep 21 03:35 S 10 5 Fog/Mist OVC016 75 71     88%   77 29.97        
Sep 21 03:15 S 16 10 Cloudy OVC014 75 71     88%   76 29.97        
Sep 21 02:55 S 14 7 Cloudy OVC014 75 71     89%   76 29.97        
Sep 21 02:35 S 13 5 Fog/Mist OVC014 75 71     89%   76 29.98        
Sep 21 02:15 S 13 5 Fog/Mist OVC012 75 71     89%   76 29.98        
Sep 21 01:55 S 16 7 Fog/Mist OVC012 74 71     90%   76 29.97        
Sep 21 01:35 S 14 7 Cloudy OVC012 74 71     90%   76 29.97        
Sep 21 01:15 S 17 7 Cloudy OVC012 74 71     90%   76 29.97        
Sep 21 00:55 S 15 10 Cloudy OVC012 74 71     90%   75 29.97        
Sep 21 00:35 SSE 15 10 Cloudy OVC012 74 71     91%   75 29.98        
Sep 21 00:15 SSE 13 10 Cloudy OVC012 73 71     92%   75 29.98        
Sep 20 23:55 SSE 15 10 Cloudy BKN012 OVC021 73 71     92%   74 29.98        
Sep 20 23:35 SSE 15 10 Partly Cloudy SCT012 73 70     92%   74 29.98        
Sep 20 23:15 SSE 15 10 Partly Cloudy SCT012 72 70     92%   74 29.99        
Sep 20 22:55 SSE 16 10 Mostly Cloudy BKN012 BKN023 73 70     91%   74 29.98        
Sep 20 22:35 SSE 14 10 Cloudy OVC012 73 71     91%   75 29.98        
Sep 20 22:15 SSE 14 10 Cloudy OVC012 74 71     90%   75 29.98        
Sep 20 21:55 S 13 10 Cloudy OVC012 74 71     90%   75 29.98        
Sep 20 21:35 SSE 15 10 Cloudy OVC014 74 71     89%   76 29.98        
Sep 20 21:15 SSE 13 10 Cloudy BKN014 BKN020 OVC025 75 71     89%   76 29.97        
Sep 20 20:55 SSE 9 10 Cloudy SCT014 BKN025 OVC030 75 71     90%   76 29.96        
Sep 20 20:35 SSE 9 10 Cloudy SCT014 BKN020 OVC026 74 71     90%   76 29.96        
Sep 20 20:15 SSE 7 10 Cloudy BKN015 OVC019 75 72     89%   77 29.95        
Sep 20 19:55 SSE 9 10 Clear   75 71     89%   76 29.95        
Sep 20 19:35 SSE 9 10 Clear   75 72     89%   77 29.94        
Sep 20 19:15 SSE 8 10 Clear   75 71     89%   76 29.95        
Sep 20 18:55 SSE 10 10 Clear   76 72     87%   77 29.95       0
Sep 20 18:35 S 9 10 Mostly Cloudy BKN018 76 71     87%   77 29.95        
Sep 20 18:15 SSE 11 10 Partly Cloudy SCT013 SCT021 75 71     88%   77 29.94        
Sep 20 17:55 SSE 12 10 Clear   76 72     86%   78 29.93        
Sep 20 17:35 SE 10 10 Clear   75 71     89%   76 29.94        
Sep 20 17:15 SE 13 10 Clear   75 71     89%   76 29.94        
Sep 20 16:55 SE 11 10 Clear   75 71     89%   76 29.95        
Sep 20 16:35 SSE 12 10 Cloudy BKN011 BKN021 OVC040 74 71     90%   76 29.96        
Sep 20 16:15 SSE 13 10 Cloudy BKN011 OVC019 74 72     91%   76 29.96        
Sep 20 15:55 SSE 11 10 Cloudy BKN009 OVC017 73 72     95%   75 29.96     0  
Sep 20 15:35 SSE 13 10 Cloudy OVC009 73 71     94%   75 29.96        
Sep 20 15:15 SSE 13 10 Cloudy OVC009 73 71     93%   75 29.97        
Sep 20 14:55 SSE 12 10 Cloudy OVC007 73 72     95%   75 29.97   0    
Sep 20 14:35 SSE 14 5 Light Rain and Fog/Mist OVC007 72 71     96%   74 29.98   0    
Sep 20 14:15 SSE 13 7 Light Rain and Fog/Mist OVC007 72 71     96%   73 29.98        
Sep 20 13:55 SSE 12 10 Cloudy OVC007 72 71     96%   74 29.99   0    
Sep 20 13:35 SSE 13 7 Light Drizzle and Fog/Mist OVC007 72 71     96%   73 29.99   0    
Sep 20 13:15 SSE 12 2.5 Light Rain and Fog/Mist OVC005 72 71     97%   73 30   0    
Sep 20 12:55 SSE 13 3.5 Light Rain and Fog/Mist   72 71     96%   73 30.01        
Notice The following observation data may not be complete
Sep 20 12:40     Clear            %     30.01        
Sep 20 12:15 SSE 12 5 Light Rain and Fog/Mist OVC007 71 70     96%   73 30.01   0    
Sep 20 11:55 SSE 12 5 Light Rain and Fog/Mist OVC005 71 70     97%   72 30.02        
Sep 20 11:35 SSE 9 3 Light Rain and Fog/Mist BKN005 OVC009 71 70     97%   72 30.02        
Sep 20 11:15 SSE 12 4 Fog/Mist OVC007 71 69     96%   72 30.03        
Sep 20 10:55 SSE 10 7 Cloudy OVC007 70 69     96%   72 30.02   0    
Sep 20 10:35 SSE 10 10 Cloudy BKN010 OVC014 71 69     96%   72 30.02   0    
Sep 20 10:15 SSE 13 10 Cloudy BKN010 OVC016 70 69     95%   71 30.02        
Sep 20 09:55 SSE 14 10 Cloudy OVC008 70 69     95%   72 30.02        
Sep 20 09:35 SSE 13 7 Light Rain BKN008 OVC012 71 69     95%   72 30.01        
Sep 20 09:15 SSE 14 5 Light Rain and Fog/Mist OVC014 72 69     92%   73 30.01        
Sep 20 08:55 SSE 11 10 Cloudy OVC016 73 68     83%   74 30.01        
Sep 20 08:35 SSE 10 10 Cloudy OVC021 73 67     83%   74 30.01        
Sep 20 08:15 SE 10 10 Cloudy OVC025 73 68     84%   74 30.01        
Sep 20 07:55 SE 10 10 Cloudy OVC027 73 68     85%   74 30        
Sep 20 07:35 SE 10 10 Cloudy OVC027 72 68     85%   73 30        
Sep 20 07:15 SE 10 10 Mostly Cloudy BKN027 72 68     87%   73 29.99        
Sep 20 06:55 SE 10 10 Partly Cloudy SCT027 72 68     87%   73 29.98        
Sep 20 06:35 SE 10 10 Clear CLR 72 68     88%   73 29.97        
Sep 20 06:15 SE 13 10 Clear CLR 72 68     87%   74 29.96        
Sep 20 05:55 SE 8 10 Clear CLR 71 69     92%   72 29.97        
Sep 20 05:35 ESE 9 10 Clear CLR 71 69     92%   72 29.97        
Sep 20 05:15 ESE 9 10 Clear CLR 72 69     91%   73 29.97        
Sep 20 04:55 E 9 10 Clear CLR 72 69     91%   73 29.96        
Sep 20 04:35 E 9 10 Clear CLR 71 69     92%   73 29.97        
Sep 20 04:15 E 8 10 Clear CLR 72 69     91%   73 29.97        
Sep 20 03:55 E 8 10 Clear CLR 72 69     88%   73 29.97        
Sep 20 03:35 E 9 10 Clear CLR 73 69     86%   74 29.98        
Sep 20 03:15 ESE 7 10 Clear CLR 73 69     85%   74 29.98        
Sep 20 02:55 ESE 7 10 Partly Cloudy SCT110 73 68     84%   74 29.99        
Sep 20 02:35 ESE 6 10 Partly Cloudy SCT110 73 68     84%   74 29.99        
Sep 20 02:15 SE 8 10 Clear CLR 73 68     84%   74 29.99        
Sep 20 01:55 SE 8 10 Clear CLR 73 68     84%   74 29.99        
Sep 20 01:35 SE 7 10 Clear CLR 74 68     83%   75 29.99        
Sep 20 01:15 SE 7 10 Clear CLR 74 68     83%   75 29.99        
Sep 20 00:55 SE 7 10 Clear CLR 73 68     84%   74 29.98        
Sep 20 00:35 SE 7 10 Clear CLR 74 68     81%   75 29.98        
Sep 20 00:15 SSE 7 10 Clear CLR 75 68     79%   76 29.98        
Sep 19 23:55 SE 8 10 Clear CLR 75 68     79%   76 29.97        
Sep 19 23:35 SSE 8 10 Clear CLR 74 68     80%   75 29.98        
Sep 19 23:15 SSE 7 10 Clear CLR 74 68     83%   75 29.98        
Sep 19 22:55 SE 6 10 Clear CLR 74 69     83%   76 29.98        
Sep 19 22:35 SSE 7 7 Haze CLR 74 69     84%   75 29.97        
Sep 19 22:15 SSE 6 10 Clear CLR 76 69     80%   77 29.96        
Sep 19 21:55 SSE 8 10 Clear CLR 78 69     75%   79 29.96        
Sep 19 21:35 SE 13 10 Clear CLR 79 69     72%   80 29.95        
Sep 19 21:15 SE 12 10 Clear CLR 79 69     72%   80 29.96        
Sep 19 20:55 SE 7 10 Clear CLR 77 69     78%   78 29.95        
Sep 19 20:35 SE 7 10 Clear CLR 78 69     76%   79 29.94        
Sep 19 20:15 SSE 7 10 Clear CLR 79 70     74%   80 29.95        
Sep 19 19:55 SE 9 10 Partly Cloudy SCT060 80 70     71%   83 29.94        
Sep 19 19:35 SE 6 10 Clear CLR 81 70     69%   84 29.94        
Sep 19 19:15 SE 5 10 Clear CLR 82 70     67%   86 29.93        
Sep 19 18:55 SE 6 10 Clear CLR 84 70     62%   88 29.94        
Sep 19 18:35 SSE 8 10 Clear CLR 86 69     57%   90 29.94        
Sep 19 18:15 S 10 10 Clear CLR 87 68     54%   91 29.94        
Sep 19 17:55 SSE 8 10 Clear CLR 88 68     51%   92 29.94        
Sep 19 17:35 SSE 10 10 Clear CLR 89 68     50%   93 29.94        
Sep 19 17:10 SE 12 10 Partly Cloudy SCT050 90 68     49%   94 29.94        
Sep 19 16:55 S 11 10 Partly Cloudy SCT050 SCT070 90 69     49%   95 29.94        
Sep 19 16:35 SSE 9 10 Partly Cloudy SCT070 90 70     52%   96 29.94        
Sep 19 16:15 SSE 10 10 Partly Cloudy SCT049 90 71     53%   96 29.94        
Sep 19 15:55 SE 14 10 Partly Cloudy SCT049 91 71     52%   97 29.95        
Sep 19 15:35 SE 14 10 Partly Cloudy SCT050 91 69     49%   95 29.96        
Sep 19 15:15 SSE 13 10 Clear CLR 91 70     50%   96 29.97        
Sep 19 14:55 SSE 15 10 Clear CLR 90 69     50%   95 29.98        
Sep 19 14:35 SE 10 7 Haze SCT050 91 69     49%   96 29.98        
Sep 19 14:15 S 10 10 Partly Cloudy SCT050 90 71     52%   97 29.98        
Sep 19 13:55 SE 13 10 Partly Cloudy SCT050 91 71     52%   98 29.99        
Sep 19 13:35 SE 16 10 Partly Cloudy SCT045 SCT050 90 70     52%   95 29.99        
Sep 19 13:15 SSE 8 10 Partly Cloudy SCT045 SCT050 89 71     56%   95 30        
Sep 19 12:55 ESE 11 10 Partly Cloudy SCT041 SCT049 89 72     58%   97 30        
Sep 19 12:35 SE 10 10 Clear CLR 88 72     60%   96 30.01        
Sep 19 12:15 SSE 11 10 Clear CLR 89 73     59%   96 30.01        
Sep 19 11:55 SSE 9 7 Clear CLR 88 72     60%   95 30.01        
Sep 19 11:35 SE 9 10 Clear CLR 87 73     62%   95 30.02        
Sep 19 11:15 Calm 7 Clear CLR 86 73     65%   93 30.02        
Sep 19 10:55 ESE 5 10 Clear CLR 85 73     68%   91 30.02        
Sep 19 10:35 S 5 10 Clear CLR 83 73     70%   90 30.02        
Sep 19 10:15 SSW 3 10 Clear CLR 82 72     72%   87 30.02        
Sep 19 09:55 SSE 3 10 Clear CLR 81 72     73%   85 30.02        
Sep 19 09:35 S 3 10 Clear CLR 80 72     77%   84 30.01        
Sep 19 09:15 SSE 5 10 Clear CLR 78 72     80%   80 30        
Sep 19 08:55 SSE 6 10 Clear CLR 77 71     83%   78 30        
Sep 19 08:35 SSE 5 10 Clear CLR 75 71     88%   76 30        
Sep 19 08:15 Calm 2.5 Fog/Mist CLR 73 70     90%   74 30        
Sep 19 07:55 ESE 3 10 Clear CLR 71 69     93%   72 29.99        
Sep 19 07:35 Calm 10 Clear CLR 69 68     95%     29.99        
Sep 19 07:15 SE 3 10 Clear CLR 69 68     96%     29.98        
Sep 19 06:55 SSE 3 10 Clear CLR 69 68     96%     29.98        
Sep 19 06:35 Calm   Clear   69 68     96%     29.97        
Sep 19 06:15 Calm 10 Clear CLR 70 68     93%     29.97        
Sep 19 05:55 Calm 10 Clear CLR 69 68     95%     29.97        
Sep 19 05:35 S 5 10 Clear CLR 70 68     93%     29.97        
Sep 19 05:15 SSE 7 10 Clear CLR 70 68     93%     29.97        
Sep 19 04:55 S 5 10 Clear CLR 70 68     93%   71 29.97        
Sep 19 04:35 S 6 10 Clear CLR 70 68     93%     29.96        
Sep 19 04:15 S 6 10 Clear CLR 71 68     92%   72 29.96        
Sep 19 03:55 S 5 10 Clear CLR 70 68     93%   71 29.96        
Sep 19 03:35 S 6 10 Clear CLR 71 68     90%   72 29.96        
Sep 19 03:15 SSE 5 10 Clear CLR 72 68     87%   73 29.96        
Sep 19 02:55 Calm 10 Clear CLR 72 69     91%   73 29.96        
Sep 19 02:35 Calm 10 Clear CLR 71 69     93%   73 29.96        
Sep 19 02:15 Calm 10 Clear CLR 71 69     92%   72 29.97        
Sep 19 01:55 Calm 10 Clear CLR 71 69     92%   73 29.96        
Sep 19 01:35 Calm 10 Clear CLR 72 69     92%   73 29.96        
Sep 19 01:15 Calm 10 Clear CLR 72 69     90%   73 29.97        
Sep 19 00:55 Calm 10 Clear CLR 72 69     90%   73 29.96        
Sep 19 00:35 Calm 10 Clear CLR 75 69     84%   76 29.97        
Sep 19 00:15 Calm 10 Clear CLR 75 70     83%   76 29.97        
Sep 18 23:55 Calm 10 Clear CLR 75 70     83%   77 29.97        
Sep 18 23:35 Calm 10 Clear CLR 72 69     88%   74 29.97        
Sep 18 23:15 Calm 10 Clear CLR 75 70     85%   76 29.97        
Sep 18 22:55 E 3 10 Clear CLR 74 69     85%   75 29.98        
Sep 18 22:35 Calm 10 Clear CLR 73 69     87%   75 29.98        
Sep 18 22:15 Calm 10 Clear CLR 75 69     83%   76 29.97        
Sep 18 21:55 Calm 10 Clear CLR 75 70     82%   76 29.97        
Sep 18 21:35 Calm 10 Clear CLR 75 69     82%   76 29.97        
Sep 18 21:15 Calm 10 Clear CLR 75 70     83%   76 29.96        
Sep 18 20:55 Calm 10 Clear CLR 75 70     83%   76 29.96        
Sep 18 20:35 Calm 10 Clear CLR 77 70     79%   78 29.96        
Sep 18 19:55 ESE 5 10 Clear CLR 81 69     66%   85 29.95        
Sep 18 19:35 SE 5 10 Clear CLR 82 69     66%   85 29.94        
Sep 18 19:15 SE 5 10 Clear CLR 84 70     61%   89 29.94        
Sep 18 18:55 Calm 10 Clear CLR 85 70     61%   90 29.94        
Sep 18 18:35 S 6 10 Clear CLR 87 69     55%   91 29.94        
Sep 18 18:15 SSE 8 10 Clear CLR 89 69     52%   93 29.94        
Sep 18 17:55 SSE 9 10 Clear CLR 89 68     50%   94 29.94        
Sep 18 17:35 SSE 14 10 Clear CLR 90 69     50%   94 29.93        
Sep 18 17:15 S 9 10 Clear CLR 90 67     47%   94 29.93        
Sep 18 16:55 SSE 11 10 Clear CLR 90 68     47%   94 29.93        
Sep 18 16:35 SSE 15 10 Clear CLR 91 67     46%   95 29.93        
Sep 18 16:15 SSE 11 10 Clear CLR 91 69     48%   96 29.94        
Sep 18 15:55 S 14 10 Clear CLR 91 68     46%   95 29.95        
Sep 18 15:35 SSE 15 10 Partly Cloudy SCT050 92 68     46%   96 29.95        
Sep 18 14:55 S 13 10 Partly Cloudy SCT050 91 69     49%   96 29.96        
Sep 18 14:35 S 16 10 Partly Cloudy SCT050 92 69     48%   97 29.97        
Sep 18 13:55 S 14 10 Partly Cloudy SCT050 91 71     52%   97 29.98        
Sep 18 13:35 S 12 10 Partly Cloudy SCT049 91 71     52%   98 29.99        
May 15 13:35 WSW 10 10 Mostly Cloudy BKN034 BKN039 BKN060 80 69     69%   83 29.98        
May 15 04:15 SE 14 10 Clear CLR 63 61     93%     29.87        
May 14 22:35   5 Thunderstorms and Haze BKN050 BKN060 BKN120 74 62     66%   75 29.92        
May 14 11:55 SSW 21 10 Clear and Windy CLR 85 70     61%   90 29.92        
May 14 11:15 S 24 10 Clear and Windy CLR 84 70     63%   88 29.92        
May 14 10:55 SSW 21 10 Clear and Windy CLR 81 69     66%   84 29.93        
May 14 08:55 S 13 10 Clear CLR 74 67     80%   75 29.94        
May 14 06:35 S 9 10 Clear CLR 71 66     84%   71 29.91        
Notice The following observation data may not be complete
May 14 00:55   10 Clear CLR          %              
May 13 19:55 S 14 10 Clear CLR 81 63     55%   82 29.89        
May 13 08:55 S 16 10 Clear CLR 76 69     78%   77 29.98        
May 13 06:35 S 7 10 Clear CLR 67 65     93%     29.96        
May 13 02:15 SSE 6 10 Clear CLR 67 64     90%     29.95        
May 13 00:35 S 3 10 Clear CLR 69 64     86%     29.97        
May 12 21:15 S 9 10 Mostly Cloudy BKN041 77 66     70%   78 29.91        
May 12 16:15 S 21 10 Clear and Windy   83 69     62%   87 29.88        
May 12 04:35 SSE 10 10 Clear CLR 69 62     78%     29.83        
May 12 01:55 S 14 10 Clear CLR 73 63     72%   73 29.8        
May 11 14:15 S 22 10 Clear and Windy CLR 83 64     53%   85 29.77        
May 11 09:35 SSW 23 10 Clear and Windy CLR 74 62     66%   74 29.8        
Jun 12 08:15 S 17 10 Clear CLR 73 68     83%   74 29.92        
Jun 12 07:12 SSE 10 10 Clear CLR 72 64     78%   72 29.91        
Jun 12 05:55 S 10 10 Clear CLR 70 63     78%     29.89        
Jun 12 05:12 S 12 10 Clear CLR 72 63     73%   72 29.88        
Jun 12 02:12 SSE 10 10 Clear CLR 72 64     78%   72 29.88        
Jun 12 01:52 SSE 10 10 Clear CLR 72 64     78%   72 29.89        
Notice The following observation data may not be complete
Jun 12 00:15   10 Clear CLR          %              
Notice The following observation data may not be complete
Jun 11 23:15   10 Clear CLR          %              
Notice The following observation data may not be complete
Jun 11 22:47   10 Clear CLR          %              
Notice The following observation data may not be complete
Jun 11 21:42   10 Clear CLR          %              
Jun 11 21:07 SSE 14 10 Clear CLR 79 64     61%   79 29.84        
Jun 11 19:27 SSE 15 10 Clear CLR 82 66     58%   85 29.83        
Notice The following observation data may not be complete
Jun 11 18:42   10 Clear CLR          %              
Jun 11 18:12 SSE 21 10 Clear and Windy CLR 84 66     55%   87 29.83        
Jun 11 17:27 SSE 20 10 Clear and Windy CLR 86 66     52%   88 29.84        
Jun 11 17:12 SSE 26 10 Clear and Breezy CLR 86 66     52%   88 29.84        
Jun 11 16:32 S 24 10 Clear and Windy CLR 86 66     52%   88 29.84        
Jun 11 15:17 SSE 24 10 Partly Cloudy and Windy SCT043 88 66     49%   90 29.86        
Notice The following observation data may not be complete
Jun 11 15:15   10 Partly Cloudy SCT043          %              
Jun 11 15:12 SSE 26 10 Clear and Breezy   88 66     49%   90 29.86        
Jun 11 14:52 S 22 10 Clear and Windy CLR 88 66     49%   90 29.86        
Jun 11 12:42 S 20 10 Clear and Windy CLR 86 64     49%   88 29.87        
Notice The following observation data may not be complete
Jun 11 11:47   10 Clear CLR          %              
Jun 11 11:32 S 23 10 Clear and Windy CLR 84 64     52%   86 29.87        
Jun 11 10:42 S 20 10 Clear and Windy CLR 82 64     55%   84 29.86        
Jun 11 10:07 S 21 10 Clear and Windy CLR 81 64     58%   82 29.87        
Jun 11 08:02 S 18 10 Clear CLR 73 63     69%   74 29.87        
Jun 11 07:12 SSE 17 10 Clear CLR 72 63     73%   72 29.87        
Jun 11 07:07 SSE 16 10 Clear CLR 72 63     73%   72 29.86        
Jun 11 06:52 SSE 16 10 Clear CLR 72 63     73%   72 29.86        
Jun 11 05:12 SSE 13 10 Clear CLR 72 63     73%   72 29.85        
Jun 11 04:32 S 14 10 Clear CLR 72 63     73%   72 29.85        
Jun 11 02:42 S 16 10 Clear   73 63     69%   74 29.84        
Jun 11 02:32 S 15 10 Clear CLR 73 63     69%   74 29.85        
Jun 11 01:15 S 20 10 Clear and Windy CLR 73 63     69%   74 29.84        
Jun 11 00:55 S 16 10 Clear CLR 73 63     69%   74 29.85        
Jun 11 00:15 S 16 10 Clear CLR 73 63     69%   74 29.85        
Jun 10 22:22 SSE 14 10 Clear CLR 77 64     65%   77 29.83        
Jun 10 22:07 S 17 10 Clear   77 64     65%   77 29.82        
Jun 10 21:12 SSE 14 10 Clear CLR 79 64     61%   79 29.8        
Jun 10 18:35 S 17 10 Clear CLR 82 64     55%   84 29.77        
Jun 10 18:27 SSE 22 10 Partly Cloudy and Windy SCT040 84 66     55%   87 29.77        
Jun 10 18:17 SSE 24 10 Clear and Windy   84 66     55%   87 29.77        
Jun 10 17:02 SSE 23 10 Partly Cloudy and Windy SCT040 84 66     55%   87 29.77        
Jun 10 13:22 SSE 23 10 Mostly Cloudy and Windy BKN036 82 64     55%   84 29.83        
Jun 10 13:12 S 17 10 Mostly Cloudy BKN036 82 64     55%   84 29.84        
Jun 10 11:07 S 22 10 Clear and Windy CLR 81 64     58%   82 29.84        
Jun 10 09:42 S 23 10 Clear and Windy CLR 75 63     65%   75 29.86        
Notice The following observation data may not be complete
Jun 10 09:15   10 Clear CLR          %              
Notice The following observation data may not be complete
Jun 10 07:42   10 Clear CLR          %              
Jun 10 06:55 S 13 10 Clear CLR 68 61     78%     29.85        
Jun 10 02:57 SSE 7 10 Clear CLR 64 61     88%     29.82        
Jun 10 01:42 SSE 7 10 Clear CLR 66 59     78%     29.84        
Jun 10 01:32 SSE 7 10 Clear CLR 66 59     78%     29.84        
Jun 10 01:17 SSE 8 10 Clear CLR 66 59     78%     29.84        
Notice The following observation data may not be complete
Jun 10 00:47   10 Clear CLR          %              
Notice The following observation data may not be complete
Jun 09 21:35 SSE 8 10 Clear CLR   59      %     29.84        
Notice The following observation data may not be complete
Jun 09 20:47   10 Clear CLR          %              
Jun 09 20:12 SSE 9 10 Clear CLR 75 61     61%   75 29.84        
Jun 09 19:07 SSE 12 10 Clear CLR 81 57     45%   81 29.84        
Notice The following observation data may not be complete
Jun 09 18:47   10 Clear CLR          %              
Jun 09 17:26 SSE 14 10 Clear CLR 82 57     42%   82 29.85        
Jun 09 16:52 SSE 15 10 Clear CLR 82 57     42%   82 29.86        
Jun 09 16:22 SSE 14 10 Partly Cloudy SCT050 82 57     42%   82 29.87        
Notice The following observation data may not be complete
Jun 09 16:15   10 Partly Cloudy SCT050          %              
Jun 09 15:15 SSE 14 10 Clear CLR 82 57     42%   82 29.88        
Jun 09 15:02 SSE 16 10 Clear CLR 82 57     42%   82 29.88        
Jun 09 14:52 S 13 10 Partly Cloudy SCT050 82 57     42%   82 29.88        
Notice The following observation data may not be complete
Jun 09 13:47   10 Partly Cloudy SCT050          %              
Notice The following observation data may not be complete
Jun 09 08:55   10 Clear CLR          %              
Jun 09 07:15 Calm 10 Clear CLR 61 57     88%     29.93        
Notice The following observation data may not be complete
Jun 09 04:57   10 Clear CLR          %              
Jun 09 02:07 Calm 10 Clear CLR 61 55     82%     29.9        
Jun 09 01:07 Calm 10 Clear CLR 63 57     83%     29.92        
Jun 08 23:42 Calm 10 Clear CLR 64 57     77%     29.93        
Notice The following observation data may not be complete
Jun 08 22:42   10 Clear CLR          %              
Jun 08 19:32 ESE 6 10 Clear   79 52     39%   78 29.91        
Jun 08 19:17 ESE 6 10 Clear CLR 79 50     37%   78 29.92        
Jun 08 19:02 SSE 3 10 Clear CLR 79 48     34%   78 29.92        
Jun 08 18:52 SSE 6 10 Clear CLR 81 50     34%   80 29.92        
Jun 08 15:02 SSE 5 10 Clear CLR 81 45     28%   80 29.99        
Jun 08 14:17 SSW 6 10 Clear CLR 81 46     30%   80 30        
Jun 08 12:27 S 6 10 Clear CLR 77 46     34%   76 30.04        
Jun 08 11:52 SSE 6 10 Clear CLR 77 46     34%   76 30.05        
Notice The following observation data may not be complete
Jun 08 10:57   10 Clear CLR          %              
Jun 08 08:55 ENE 3 10 Clear CLR 68 57     68%     30.07        
Jun 08 08:42 Calm 10 Clear CLR 68 59     73%     30.07        
Jun 08 08:27 Calm 10 Clear   66 57     73%     30.07        
Jun 08 07:55 Calm 10 Clear CLR 63 55     77%     30.07        
Jun 08 06:57 Calm 10 Clear CLR 55 54     94%     30.06        
Jun 07 21:27 ENE 3 10 Clear CLR 70 54     56%     30.03        
Jun 07 21:17 ENE 3 10 Clear CLR 72 54     53%   71 30.03        
Jun 07 21:12 ENE 3 10 Clear CLR 72 54     53%   71 30.03        
Jun 07 18:07 ENE 9 10 Clear CLR 79 48     34%   78 30.03        
Jun 07 17:07 E 7 10 Clear CLR 81 46     30%   80 30.04        
Notice The following observation data may not be complete
Jun 07 15:42   10 Clear CLR          %              
Notice The following observation data may not be complete
Jun 07 14:42   10 Clear CLR          %              
Jun 07 13:37 ENE 5 10 Clear CLR 79 45     30%   78 30.07        
Jun 07 13:35 E 5 10 Clear CLR 77 43     30%   76 30.07        
Jun 07 12:02 NE 9 10 Clear CLR 77 46     34%   76 30.09        
Jun 07 11:22 NE 8 10 Clear CLR 77 46     34%   76 30.09        
Jun 07 10:47 NNE 10 10 Clear CLR 75 46     36%   74 30.09        
Jun 07 09:35 ENE 8 10 Clear CLR 72 50     46%   71 30.09        
Jun 07 09:02 ENE 8 10 Clear CLR 70 52     53%     30.08        
Jun 06 15:15 NNE 11 10 Clear CLR 84 55     37%   83 29.94        
Jun 06 14:12 NNE 16 10 Clear CLR 84 57     40%   83 29.95        
Jun 06 13:57 N 13 10 Clear CLR 84 55     37%   83 29.96        
Notice The following observation data may not be complete
Jun 06 12:42   10 Clear CLR          %              
Jun 06 12:37 NNE 13 10 Clear CLR 84 57     40%   83 29.96        
Jun 06 11:55 NNE 9 10 Clear CLR 81 59     48%   81 29.97        
Jun 06 11:32 NE 9 10 Clear CLR 81 63     54%   82 29.96        
Jun 06 09:02 NNE 7 10 Clear CLR 73 61     65%   73 29.95        
Jun 06 08:02 N 6 10 Clear CLR 70 61     73%     29.94        
Jun 06 07:42 N 3 10 Clear CLR 70 61     73%     29.93        
Jun 06 07:35 N 5 10 Clear CLR 68 61     78%     29.94        
Jun 06 06:55 N 5 10 Clear CLR 64 61     88%     29.92        
Jun 06 05:55 N 6 10 Clear CLR 63 61     94%     29.91        
Notice The following observation data may not be complete
Jun 06 04:52   10 Clear CLR          %              
Notice The following observation data may not be complete
Jun 06 02:57   10 Clear CLR          %              
Jun 06 02:55 Calm 10 Clear CLR 68 63     83%     29.89        
Jun 06 00:55 Calm 10 Clear CLR 68 64     88%     29.88        
Jun 05 22:42 W 3 10 Clear CLR 73 66     78%   74 29.87        
Jun 05 22:37 Calm 10 Clear   73 66     78%   74 29.87        
Jun 05 21:55 Calm 10 Clear   73 66     78%   74 29.86        
Jun 05 19:37 E 6 10 Clear CLR 84 63     48%   85 29.83        
Jun 05 18:22 ENE 12 10 Clear CLR 86 61     43%   86 29.81        
Jun 05 17:22 NE 9 10 Clear CLR 88 61     40%   88 29.8        
Notice The following observation data may not be complete
Jun 05 14:15   10 Clear CLR          %